HEBOWX Weather Reports


time (UTC)temp
F
wind
direction
speed
knots
gust
knots
rain 1hr
in
rain 24hr
in
rain mn
in
humidity
%
barometer
mb
20260507015032 49 340 0.0 1.7 0.00 0.00 0.00 70 1017.2
20260507014532 49 326 0.0 1.7 0.00 0.00 0.00 69 1017.2
20260507014035 49 336 0.0 1.7 0.00 0.00 0.00 68 1017.3
20260507013533 49 336 0.0 1.7 0.00 0.00 0.00 67 1017.3
20260507013033 50 303 0.0 1.7 0.00 0.00 0.00 66 1017.3
20260507012533 50 326 0.9 0.9 0.00 0.00 0.00 66 1017.3
20260507012033 50 7 0.0 1.7 0.00 0.00 0.00 66 1017.3
20260507011536 50 336 0.0 1.7 0.00 0.00 0.00 66 1017.4
20260507011032 50 338 0.0 1.7 0.00 0.00 0.00 65 1017.4
20260507010533 50 336 0.0 2.6 0.00 0.00 0.00 64 1017.4
20260507010035 50 334 0.0 2.6 0.00 0.00 0.00 65 1017.4
20260507005533 51 287 0.0 2.6 0.00 0.00 0.00 64 1017.5
20260507005032 50 341 0.0 1.7 0.00 0.00 0.00 64 1017.5
20260507004532 51 337 0.0 1.7 0.00 0.00 0.00 63 1017.4
20260507004032 51 7 0.0 1.7 0.00 0.00 0.00 63 1017.5
20260507003532 51 317 0.0 1.7 0.00 0.00 0.00 62 1017.5
20260507003033 51 320 0.0 1.7 0.00 0.00 0.00 63 1017.5
20260507002535 51 340 0.0 0.9 0.00 0.00 0.00 63 1017.4
20260507002033 51 333 0.0 3.5 0.00 0.00 0.00 63 1017.5
20260507001532 52 326 0.0 3.5 0.00 0.00 0.00 62 1017.5
20260507001035 52 285 0.0 3.5 0.00 0.00 0.00 63 1017.5
20260507000532 52 289 1.7 1.7 0.00 0.00 0.00 61 1017.5
20260507000032 52 338 0.9 1.7 0.00 0.00 0.00 62 1017.5
20260506235533 52 337 0.0 1.7 0.00 0.00 0.00 61 1017.5
20260506235032 52 323 0.0 1.7 0.00 0.00 0.00 60 1017.6
20260506234532 53 303 0.0 3.5 0.00 0.00 0.00 60 1017.6
20260506234032 53 299 0.0 3.5 0.00 0.00 0.00 60 1017.6
20260506233532 53 305 0.0 3.5 0.00 0.00 0.00 61 1017.6
20260506233032 53 303 0.0 3.5 0.00 0.00 0.00 60 1017.6
20260506232534 53 285 0.0 3.5 0.00 0.00 0.00 61 1017.6
20260506232032 53 287 0.0 3.5 0.00 0.00 0.00 61 1017.6
20260506231532 53 280 0.9 2.6 0.00 0.00 0.00 61 1017.7
20260506231032 53 296 0.0 2.6 0.00 0.00 0.00 61 1017.7
20260506230533 53 268 0.9 4.3 0.00 0.00 0.00 60 1017.7
20260506230032 53 275 0.9 4.3 0.00 0.00 0.00 53 1017.7
20260506225534 53 309 0.9 4.3 0.00 0.00 0.00 54 1017.9
20260506225032 54 273 0.9 3.5 0.00 0.00 0.00 58 1017.7
20260506224532 54 305 0.9 2.6 0.00 0.00 0.00 59 1017.9
20260506224034 54 294 0.9 5.2 0.00 0.00 0.00 53 1017.9
20260506223532 54 312 0.9 5.2 0.00 0.00 0.00 58 1018.0
20260506223032 54 298 0.9 5.2 0.00 0.00 0.00 58 1018.0
20260506222534 54 33 0.9 5.2 0.00 0.00 0.00 58 1018.0
20260506222034 55 278 1.7 5.2 0.00 0.00 0.00 57 1018.1
20260506221532 55 278 0.9 5.2 0.00 0.00 0.00 57 1018.0
20260506221032 55 280 0.9 4.3 0.00 0.00 0.00 57 1018.1
20260506220532 55 288 0.9 4.3 0.00 0.00 0.00 57 1018.1
20260506220033 55 275 1.7 5.2 0.00 0.00 0.00 56 1018.1
20260506215534 55 267 0.9 5.2 0.00 0.00 0.00 56 1018.0
20260506215032 56 294 0.9 5.2 0.00 0.00 0.00 50 1018.0
20260506214532 56 268 0.0 4.3 0.00 0.00 0.00 50 1018.0
20260506214033 56 280 1.7 3.5 0.00 0.00 0.00 55 1018.0
20260506213532 56 261 0.9 3.5 0.00 0.00 0.00 55 1018.0
20260506213032 56 287 0.0 4.3 0.00 0.00 0.00 48 1018.0
20260506212537 56 277 0.9 4.3 0.00 0.00 0.00 54 1018.0
20260506212032 56 261 0.9 4.3 0.00 0.00 0.00 53 1018.0
20260506211532 57 271 1.7 2.6 0.00 0.00 0.00 54 1018.0
20260506211032 57 268 0.0 4.3 0.00 0.00 0.00 54 1018.0
20260506210532 57 263 0.0 4.3 0.00 0.00 0.00 55 1018.0
20260506210034 56 268 0.0 4.3 0.00 0.00 0.00 55 1018.0
20260506205534 56 277 0.0 3.5 0.00 0.00 0.00 55 1018.0
20260506205032 56 273 0.0 3.5 0.00 0.00 0.00 55 1018.0
20260506204534 56 264 0.0 2.6 0.00 0.00 0.00 55 1018.0
20260506204032 56 292 0.0 2.6 0.00 0.00 0.00 53 1017.9
20260506203532 57 264 0.9 2.6 0.00 0.00 0.00 54 1017.9
20260506203032 56 259 0.0 6.1 0.00 0.00 0.00 54 1017.7
20260506202534 56 254 0.0 6.1 0.00 0.00 0.00 48 1017.7
20260506202032 56 270 0.0 6.1 0.00 0.00 0.00 55 1017.9
20260506201532 56 278 0.9 3.5 0.00 0.00 0.00 54 1017.9
20260506201032 56 268 0.0 1.7 0.00 0.00 0.00 48 1017.9
20260506200532 56 270 0.0 3.5 0.00 0.00 0.00 55 1017.7
20260506200032 56 278 1.7 3.5 0.00 0.00 0.00 56 1017.7
20260506195534 56 294 0.0 3.5 0.00 0.00 0.00 55 1017.7
20260506195033 56 253 1.7 1.7 0.00 0.00 0.00 55 1018.0
20260506194532 55 267 0.0 4.3 0.00 0.00 0.00 56 1018.0
20260506194033 55 284 2.6 4.3 0.00 0.00 0.00 56 1018.0
20260506193532 55 277 0.9 4.3 0.00 0.00 0.00 56 1017.9
20260506193032 55 281 2.6 4.3 0.00 0.00 0.00 56 1017.9
20260506192532 55 292 1.7 4.3 0.00 0.00 0.00 57 1017.9
20260506192034 55 268 0.0 4.3 0.00 0.00 0.00 57 1017.9
20260506191534 55 278 0.0 3.5 0.00 0.00 0.00 57 1017.7
20260506191033 55 284 0.9 5.2 0.00 0.00 0.00 57 1017.9
20260506190532 55 280 1.7 5.2 0.00 0.00 0.00 57 1017.7
20260506190034 55 264 0.9 5.2 0.00 0.00 0.00 57 1017.6
20260506185534 55 271 1.7 5.2 0.00 0.00 0.00 56 1017.7
20260506185032 55 281 2.6 5.2 0.00 0.00 0.00 57 1017.6
20260506184532 55 277 0.9 5.2 0.00 0.00 0.00 57 1017.7
20260506184032 55 281 2.6 4.3 0.00 0.00 0.00 57 1017.6
20260506183533 55 281 1.7 4.3 0.00 0.00 0.00 57 1017.6
20260506183032 55 266 0.0 3.5 0.00 0.00 0.00 57 1017.6
20260506182534 55 261 1.7 3.5 0.00 0.00 0.00 57 1017.6
20260506182032 56 313 0.9 1.7 0.00 0.00 0.00 57 1017.6
20260506181532 55 0 0.0 0.0 0.00 0.00 0.00 58 1017.5
20260506181032 55 0 0.0 0.0 0.00 0.00 0.00 58 1017.5
20260506180532 55 0 0.0 0.0 0.00 0.00 0.00 58 1017.4
20260506180033 56 0 0.0 0.0 0.00 0.00 0.00 58 1017.4
20260506175534 56 0 0.0 0.0 0.00 0.00 0.00 58 1017.4
20260506175032 56 0 0.0 0.0 0.00 0.00 0.00 58 1017.3
20260506174532 56 0 0.0 0.0 0.00 0.00 0.00 58 1017.3
20260506174033 56 0 0.0 0.0 0.00 0.00 0.00 58 1017.3
20260506173531 56 81 0.0 0.0 0.00 0.00 0.00 59 1017.2
20260506173032 55 0 0.0 0.0 0.00 0.00 0.00 59 1017.2
20260506172533 55 0 0.0 0.9 0.00 0.00 0.00 60 1017.2
20260506172031 55 0 0.0 0.9 0.00 0.00 0.00 57 1017.2
20260506171531 55 98 0.0 0.9 0.00 0.00 0.00 60 1017.2
20260506171033 55 0 0.0 0.9 0.00 0.00 0.00 60 1017.2
20260506170531 56 0 0.0 0.9 0.00 0.00 0.00 59 1017.2
20260506170031 56 198 0.0 0.9 0.00 0.00 0.00 60 1017.1
20260506165533 56 198 0.0 0.0 0.00 0.00 0.00 61 1017.1
20260506165032 56 198 0.0 0.0 0.00 0.00 0.00 60 1017.0
20260506164531 55 35 0.0 1.7 0.00 0.00 0.00 61 1017.0
20260506164033 55 0 0.0 1.7 0.00 0.00 0.00 61 1016.9
20260506163531 55 116 0.0 1.7 0.00 0.00 0.00 61 1017.0
20260506163032 55 33 0.0 1.7 0.00 0.00 0.00 62 1017.0
20260506162533 55 184 0.0 1.7 0.00 0.00 0.00 61 1017.0
20260506162033 55 127 0.0 1.7 0.00 0.00 0.00 61 1017.0
20260506161531 54 252 0.0 0.9 0.00 0.00 0.00 62 1016.9
20260506161031 54 0 0.0 0.9 0.00 0.00 0.00 63 1017.0
20260506160531 54 0 0.0 0.9 0.00 0.00 0.00 62 1017.1
20260506160031 54 252 0.0 0.9 0.00 0.00 0.00 63 1017.0
20260506155534 54 252 0.0 0.0 0.00 0.00 0.00 65 1016.9
20260506155032 54 252 0.0 0.0 0.00 0.00 0.00 65 1016.9
20260506154531 54 0 0.0 0.0 0.00 0.00 0.00 65 1016.7
20260506154034 54 0 0.0 0.0 0.00 0.00 0.00 66 1016.7
20260506153531 53 0 0.0 0.0 0.00 0.00 0.00 66 1016.7
20260506153032 53 0 0.0 0.0 0.00 0.00 0.00 66 1016.9
20260506152533 53 0 0.0 0.0 0.00 0.00 0.00 67 1016.7
20260506152032 52 0 0.0 0.0 0.00 0.00 0.00 70 1016.7
20260506151531 52 0 0.0 0.0 0.00 0.00 0.00 70 1016.5
20260506151032 51 0 0.0 0.0 0.00 0.00 0.00 70 1016.5
20260506150531 51 0 0.0 0.0 0.00 0.00 0.00 71 1016.4
20260506150031 50 0 0.0 0.0 0.00 0.00 0.00 71 1016.3
20260506145533 50 0 0.0 0.0 0.00 0.00 0.00 71 1016.2
20260506145031 50 0 0.0 0.0 0.00 0.00 0.00 72 1016.1
20260506144531 49 0 0.0 0.0 0.00 0.00 0.00 72 1016.2
20260506144031 49 0 0.0 0.0 0.00 0.00 0.00 72 1016.3
20260506143531 49 252 0.0 0.0 0.00 0.00 0.00 72 1016.3
20260506143031 49 0 0.0 0.0 0.00 0.00 0.00 71 1016.3
20260506142533 48 0 0.0 0.0 0.00 0.00 0.00 71 1016.4
20260506142034 48 0 0.0 0.0 0.00 0.00 0.00 71 1016.3
20260506141531 48 0 0.0 1.7 0.00 0.00 0.00 70 1016.2
20260506141032 48 0 0.0 1.7 0.00 0.00 0.00 69 1016.2
20260506140531 48 280 0.0 1.7 0.00 0.00 0.00 66 1016.3
20260506140032 48 285 0.0 4.3 0.00 0.00 0.00 66 1016.1
20260506135537 48 308 0.0 4.3 0.00 0.00 0.00 63 1016.3
20260506135032 48 270 0.0 4.3 0.00 0.00 0.00 64 1016.1
20260506134531 48 0 0.0 3.5 0.00 0.00 0.00 63 1016.0
20260506134033 48 256 0.0 3.5 0.00 0.00 0.00 62 1015.7
20260506133531 48 274 0.0 1.7 0.00 0.00 0.00 61 1015.7
20260506133031 49 0 0.0 2.6 0.00 0.00 0.00 59 1015.9
20260506132535 49 0 0.0 2.6 0.00 0.00 0.00 59 1015.6
20260506132032 49 264 0.0 2.6 0.00 0.00 0.00 57 1015.6
20260506131531 50 0 1.7 1.7 0.00 0.00 0.00 56 1015.7
20260506131032 50 0 0.0 0.0 0.00 0.00 0.00 51 1015.6
20260506130531 50 0 0.0 0.0 0.00 0.00 0.00 51 1015.6
20260506130031 50 0 0.0 0.0 0.00 0.00 0.00 52 1015.6
20260506125533 50 0 0.0 0.0 0.00 0.00 0.00 53 1015.5
20260506125031 50 0 0.0 0.0 0.00 0.00 0.00 55 1015.6
20260506124531 50 0 0.0 0.0 0.00 0.00 0.00 53 1015.5
20260506124031 50 0 0.0 0.0 0.00 0.00 0.00 55 1015.4
20260506123531 50 0 0.0 0.0 0.00 0.00 0.00 54 1015.5
20260506123031 50 0 0.0 0.0 0.00 0.00 0.00 56 1015.4
20260506122533 50 0 0.0 0.0 0.00 0.00 0.00 57 1015.3
20260506122032 50 0 0.0 0.0 0.00 0.00 0.00 60 1015.4
20260506121532 50 0 0.0 0.0 0.00 0.00 0.00 60 1015.4
20260506121032 50 0 0.0 0.0 0.00 0.00 0.00 60 1015.3
20260506120532 50 316 0.0 1.7 0.00 0.00 0.00 63 1015.3
20260506120037 50 334 0.0 1.7 0.00 0.00 0.00 63 1015.4
20260506115533 49 317 0.9 1.7 0.00 0.00 0.00 61 1015.2
20260506115033 49 355 0.0 0.9 0.00 0.00 0.00 64 1015.3
20260506114531 49 323 0.0 0.9 0.00 0.00 0.00 65 1015.3
20260506114033 48 309 0.0 0.9 0.00 0.00 0.00 65 1015.3
20260506113531 48 0 0.0 4.3 0.00 0.00 0.00 62 1015.3
20260506113031 48 289 0.0 4.3 0.00 0.00 0.00 62 1015.3
20260506112533 47 273 0.9 4.3 0.00 0.00 0.00 63 1015.2
20260506112031 47 277 1.7 3.5 0.00 0.00 0.00 64 1015.2
20260506111531 46 260 2.6 3.5 0.00 0.00 0.00 67 1015.2
20260506111031 46 0 0.0 0.0 0.00 0.00 0.00 68 1015.1
20260506110531 46 0 0.0 0.0 0.00 0.00 0.00 69 1015.1
20260506110031 46 0 0.0 0.0 0.00 0.00 0.00 68 1015.1
20260506105533 46 0 0.0 0.0 0.00 0.00 0.00 69 1015.0
20260506105032 46 0 0.0 0.0 0.00 0.00 0.00 69 1015.0
20260506104531 46 0 0.0 0.0 0.00 0.00 0.00 69 1015.0
20260506104031 47 0 0.0 0.0 0.00 0.00 0.00 69 1014.8
20260506103531 47 0 0.0 0.0 0.00 0.00 0.00 69 1014.7
20260506103030 47 0 0.0 0.0 0.00 0.00 0.00 69 1014.8
20260506102536 47 0 0.0 0.0 0.00 0.00 0.00 68 1014.6
20260506102031 47 0 0.0 3.5 0.00 0.00 0.00 68 1014.6
20260506101532 47 0 0.0 3.5 0.00 0.00 0.00 69 1014.7
20260506101031 47 261 0.0 3.5 0.00 0.00 0.00 70 1014.6
20260506100530 48 266 1.7 3.5 0.00 0.00 0.00 69 1014.6
20260506100032 48 271 1.7 1.7 0.00 0.00 0.00 68 1014.6
20260506095536 49 0 0.0 0.0 0.00 0.00 0.00 66 1014.5
20260506095030 50 0 0.0 0.0 0.00 0.00 0.00 63 1014.5
20260506094032 50 0 0.0 0.0 0.00 0.00 0.00 66 1014.4
20260506093531 50 0 0.0 0.0 0.00 0.00 0.00 66 1014.3
20260506093031 50 0 0.0 0.0 0.00 0.00 0.00 66 1014.4
20260506092533 50 0 0.0 0.0 0.00 0.00 0.00 66 1014.4
20260506092030 51 0 0.0 0.0 0.00 0.00 0.00 65 1014.3
20260506091530 51 0 0.0 0.0 0.00 0.00 0.00 64 1014.3
20260506091032 51 0 0.0 0.0 0.00 0.00 0.00 64 1014.3
20260506090530 51 0 0.0 0.0 0.00 0.00 0.00 63 1014.3
20260506090030 51 0 0.0 0.0 0.00 0.00 0.00 65 1014.3
20260506085531 51 0 0.0 0.0 0.00 0.00 0.00 65 1014.4
20260506085030 51 0 0.0 0.0 0.00 0.00 0.00 64 1014.3
20260506084530 51 0 0.0 1.7 0.00 0.00 0.00 62 1014.4
20260506084031 51 0 0.0 1.7 0.00 0.00 0.00 62 1014.4
20260506083530 51 204 0.0 1.7 0.00 0.00 0.00 61 1014.4
20260506083030 51 0 0.0 0.0 0.00 0.00 0.00 64 1014.4
20260506082530 51 0 0.0 0.0 0.00 0.00 0.00 64 1014.4
20260506082031 51 0 0.0 0.0 0.00 0.00 0.00 63 1014.4
20260506081532 51 0 0.0 0.0 0.00 0.00 0.00 61 1014.3
20260506081030 52 0 0.0 0.0 0.00 0.00 0.00 62 1014.4
20260506080532 52 0 0.0 0.0 0.00 0.00 0.00 63 1014.3
20260506073030 52 147 0.0 2.6 0.00 0.00 0.00 57 1014.2
20260506072530 52 0 0.0 2.6 0.00 0.00 0.00 57 1014.2
20260506072032 52 212 0.0 2.6 0.00 0.00 0.00 57 1014.1
20260506071530 52 198 0.9 2.6 0.00 0.00 0.00 58 1014.1
20260506071031 52 221 0.0 2.6 0.00 0.00 0.00 58 1014.1
20260506070530 52 211 0.0 2.6 0.00 0.00 0.00 58 1014.0
20260506062031 52 0 0.9 0.9 0.00 0.00 0.00 62 1014.0
20260506061530 52 0 0.0 0.0 0.00 0.00 0.00 63 1013.8
20260506061031 52 0 0.0 1.7 0.00 0.00 0.00 64 1013.8
20260506060530 52 0 0.0 1.7 0.00 0.00 0.00 64 1013.8
20260506051032 53 240 0.0 2.6 0.00 0.00 0.00 62 1013.7
20260506050532 54 0 1.7 1.7 0.00 0.00 0.00 62 1013.7
20260506045030 54 0 0.0 0.0 0.00 0.00 0.00 63 1013.6
20260506044530 54 0 0.0 0.0 0.00 0.00 0.00 63 1013.6
20260506044031 54 0 0.0 0.0 0.00 0.00 0.00 62 1013.6
20260506043530 54 0 0.0 0.0 0.00 0.00 0.00 62 1013.5
20260506043030 54 0 0.0 0.0 0.00 0.00 0.00 63 1013.5
20260506042530 54 0 0.0 0.0 0.00 0.00 0.00 63 1013.5
20260506042031 54 0 0.0 0.0 0.00 0.00 0.00 62 1013.4
20260506041530 54 0 0.0 0.0 0.00 0.00 0.00 62 1013.3
20260506041030 54 0 0.0 0.0 0.00 0.00 0.00 62 1013.3
20260506040532 54 0 0.0 0.0 0.00 0.00 0.00 61 1013.3
20260506040030 55 0 0.0 0.0 0.00 0.00 0.00 61 1013.3
20260506035530 55 0 0.0 0.0 0.00 0.00 0.00 60 1013.3
20260506035031 55 0 0.0 0.0 0.00 0.00 0.00 61 1013.1
20260506034531 55 0 0.0 0.0 0.00 0.00 0.00 65 1013.1
20260506034030 55 0 0.0 0.0 0.00 0.00 0.00 63 1013.0
20260506033530 55 0 0.0 0.0 0.00 0.00 0.00 63 1013.0
20260506033032 55 0 0.0 0.0 0.00 0.00 0.00 62 1012.8
20260506032531 55 0 0.0 0.0 0.00 0.00 0.00 62 1012.8
20260506032030 55 0 0.0 0.0 0.00 0.00 0.00 62 1012.7
20260506031530 55 0 0.0 0.0 0.00 0.00 0.00 61 1012.6
20260506031033 55 0 0.0 0.0 0.00 0.00 0.00 62 1012.6
20260506030530 56 0 0.0 0.0 0.00 0.00 0.00 61 1012.6
20260506030030 56 0 0.0 0.0 0.00 0.00 0.00 1 1012.6
20260506025530 56 0 0.0 0.0 0.00 0.00 0.00 60 1012.5
20260506025031 56 0 0.0 0.0 0.00 0.00 0.00 59 1012.6
20260506024530 56 0 0.0 0.0 0.00 0.00 0.00 60 1012.6
20260506024030 57 0 0.0 0.0 0.00 0.00 0.00 59 1012.5
20260506023530 57 0 0.0 0.0 0.00 0.00 0.00 58 1012.5
20260506023030 57 0 0.0 0.0 0.00 0.00 0.00 58 1012.6
20260506022530 57 0 0.0 0.0 0.00 0.00 0.00 57 1012.6
20260506022030 57 0 0.0 0.0 0.00 0.00 0.00 56 1012.5
20260506021530 58 0 0.0 0.0 0.00 0.00 0.00 56 1012.5
20260506021031 58 0 0.0 0.0 0.00 0.00 0.00 57 1012.5
20260506020530 58 0 0.0 0.0 0.00 0.00 0.00 57 1012.5
20260506020031 58 0 0.0 0.0 0.00 0.00 0.00 57 1012.5
20260506015530 58 0 0.0 0.0 0.00 0.00 0.00 57 1012.5